| time (UTC) | temp C | wind direction | speed KPH | gust KPH | rain 1hr cm | rain 24hr cm | rain mn cm | humidity % | barometer mb |
| 20260507090430 | 6 | 78 | 4.8 | 8.0 | 0.00 | 0.00 | 0.00 | 85 | 1014.5 |
| 20260507085927 | 6 | 101 | 16.1 | 16.1 | 0.00 | 0.00 | 0.00 | 86 | 1014.3 |
| 20260507085424 | 7 | 104 | 11.3 | 17.7 | 0.00 | 0.00 | 0.00 | 84 | 1014.3 |
| 20260507084921 | 7 | 19 | 9.7 | 14.5 | 0.00 | 0.00 | 0.00 | 84 | 1014.7 |
| 20260507084418 | 7 | 30 | 11.3 | 12.9 | 0.00 | 0.00 | 0.00 | 83 | 1014.8 |
| 20260507083915 | 7 | 99 | 8.0 | 8.0 | 0.00 | 0.00 | 0.00 | 81 | 1014.9 |
| 20260507083411 | 7 | 29 | 8.0 | 11.3 | 0.00 | 0.00 | 0.00 | 79 | 1014.7 |
| 20260507082908 | 7 | 14 | 6.4 | 11.3 | 0.00 | 0.00 | 0.00 | 79 | 1014.8 |
| 20260507082404 | 7 | 75 | 1.6 | 11.3 | 0.00 | 0.00 | 0.00 | 79 | 1014.7 |
| 20260507081901 | 8 | 98 | 0.0 | 12.9 | 0.00 | 0.00 | 0.00 | 79 | 1014.7 |
| 20260507081357 | 8 | 45 | 3.2 | 8.0 | 0.00 | 0.00 | 0.00 | 75 | 1014.5 |
| 20260507080854 | 8 | 359 | 8.0 | 14.5 | 0.00 | 0.00 | 0.00 | 71 | 1014.3 |
| 20260507080350 | 8 | 24 | 8.0 | 16.1 | 0.00 | 0.00 | 0.00 | 73 | 1014.4 |
| 20260507075846 | 10 | 18 | 8.0 | 14.5 | 0.00 | 0.00 | 0.00 | 67 | 1014.5 |
| 20260507075342 | 10 | 343 | 3.2 | 8.0 | 0.05 | 0.00 | 0.00 | 66 | 1014.7 |
| 20260507074838 | 10 | 354 | 0.0 | 4.8 | 0.00 | 0.00 | 0.00 | 64 | 1014.7 |
| 20260507074336 | 10 | 66 | 0.0 | 3.2 | 0.00 | 0.00 | 0.00 | 59 | 1014.8 |
| 20260507073833 | 10 | 211 | 4.8 | 8.0 | 0.00 | 0.00 | 0.00 | 58 | 1014.4 |
| 20260507073329 | 10 | 145 | 4.8 | 12.9 | 0.00 | 0.00 | 0.00 | 58 | 1014.2 |
| 20260507072827 | 10 | 211 | 6.4 | 12.9 | 0.00 | 0.00 | 0.00 | 58 | 1013.9 |
| 20260507072324 | 11 | 156 | 11.3 | 19.3 | 0.00 | 0.00 | 0.00 | 58 | 1013.7 |
| 20260507071821 | 10 | 195 | 12.9 | 24.1 | 0.00 | 0.00 | 0.00 | 58 | 1013.4 |
| 20260507071318 | 10 | 153 | 9.7 | 24.1 | 0.00 | 0.00 | 0.00 | 59 | 1013.6 |
| 20260507070814 | 10 | 160 | 12.9 | 24.1 | 0.00 | 0.00 | 0.00 | 59 | 1014.1 |
| 20260507070312 | 10 | 188 | 8.0 | 17.7 | 0.00 | 0.00 | 0.00 | 60 | 1013.9 |
| 20260507065809 | 10 | 172 | 9.7 | 24.1 | 0.00 | 0.00 | 0.00 | 59 | 1014.3 |
| 20260507065306 | 11 | 150 | 9.7 | 20.9 | 0.00 | 0.00 | 0.00 | 57 | 1014.2 |
| 20260507064802 | 11 | 147 | 14.5 | 24.1 | 0.00 | 0.00 | 0.00 | 56 | 1014.2 |
| 20260507064301 | 11 | 166 | 9.7 | 14.5 | 0.00 | 0.00 | 0.00 | 57 | 1014.1 |
| 20260507063759 | 11 | 180 | 4.8 | 17.7 | 0.00 | 0.00 | 0.00 | 56 | 1013.9 |
| 20260507063255 | 11 | 140 | 30.6 | 33.8 | 0.00 | 0.00 | 0.00 | 56 | 1014.1 |
| 20260507062752 | 11 | 154 | 16.1 | 30.6 | 0.00 | 0.00 | 0.00 | 56 | 1014.1 |
| 20260507062249 | 11 | 157 | 19.3 | 32.2 | 0.00 | 0.00 | 0.00 | 56 | 1014.2 |
| 20260507061747 | 11 | 153 | 9.7 | 17.7 | 0.00 | 0.00 | 0.00 | 56 | 1014.3 |
| 20260507061244 | 11 | 159 | 14.5 | 22.5 | 0.00 | 0.00 | 0.00 | 56 | 1014.4 |
| 20260507060743 | 11 | 161 | 14.5 | 35.4 | 0.00 | 0.00 | 0.00 | 55 | 1014.3 |
| 20260507060239 | 11 | 168 | 12.9 | 24.1 | 0.00 | 0.00 | 0.00 | 55 | 1014.4 |
| 20260507055735 | 11 | 179 | 6.4 | 27.4 | 0.00 | 0.00 | 0.00 | 55 | 1014.4 |
| 20260507055231 | 11 | 127 | 20.9 | 25.7 | 0.00 | 0.00 | 0.00 | 55 | 1014.4 |
| 20260507054727 | 11 | 180 | 1.6 | 22.5 | 0.00 | 0.00 | 0.00 | 55 | 1014.7 |
| 20260507054224 | 11 | 177 | 11.3 | 29.0 | 0.00 | 0.00 | 0.00 | 55 | 1014.5 |
| 20260507053722 | 11 | 173 | 8.0 | 25.7 | 0.00 | 0.00 | 0.00 | 55 | 1014.5 |
| 20260507053219 | 11 | 200 | 14.5 | 22.5 | 0.00 | 0.00 | 0.00 | 55 | 1014.5 |
| 20260507052718 | 11 | 121 | 19.3 | 22.5 | 0.00 | 0.00 | 0.00 | 55 | 1014.5 |
| 20260507052214 | 11 | 152 | 16.1 | 20.9 | 0.00 | 0.00 | 0.00 | 54 | 1014.5 |
| 20260507051712 | 11 | 177 | 3.2 | 11.3 | 0.00 | 0.00 | 0.00 | 55 | 1014.8 |
| 20260507051209 | 11 | 162 | 9.7 | 19.3 | 0.00 | 0.00 | 0.00 | 54 | 1014.9 |
| 20260507050705 | 11 | 189 | 6.4 | 19.3 | 0.00 | 0.00 | 0.00 | 54 | 1014.8 |
| 20260507050202 | 11 | 171 | 8.0 | 17.7 | 0.00 | 0.00 | 0.00 | 55 | 1014.9 |
| 20260507045659 | 11 | 199 | 16.1 | 16.1 | 0.00 | 0.00 | 0.00 | 54 | 1015.0 |
| 20260507045156 | 10 | 179 | 6.4 | 14.5 | 0.00 | 0.00 | 0.00 | 55 | 1014.9 |
| 20260507044652 | 10 | 178 | 6.4 | 12.9 | 0.00 | 0.00 | 0.00 | 56 | 1015.0 |
| 20260507044149 | 10 | 200 | 11.3 | 12.9 | 0.00 | 0.00 | 0.00 | 56 | 1015.0 |
| 20260507043645 | 10 | 158 | 14.5 | 17.7 | 0.00 | 0.00 | 0.00 | 55 | 1015.1 |
| 20260507043142 | 10 | 180 | 3.2 | 9.7 | 0.00 | 0.00 | 0.00 | 55 | 1015.3 |
| 20260507042638 | 10 | 155 | 6.4 | 6.4 | 0.00 | 0.00 | 0.00 | 56 | 1015.3 |
| 20260507042132 | 10 | 144 | 3.2 | 4.8 | 0.00 | 0.00 | 0.00 | 55 | 1015.1 |
| 20260507041630 | 10 | 213 | 3.2 | 4.8 | 0.00 | 0.00 | 0.00 | 55 | 1015.1 |
| 20260507041127 | 10 | 165 | 3.2 | 8.0 | 0.00 | 0.00 | 0.00 | 56 | 1015.3 |
| 20260507040625 | 10 | 154 | 4.8 | 11.3 | 0.00 | 0.00 | 0.00 | 55 | 1015.3 |
| 20260507040121 | 10 | 142 | 8.0 | 9.7 | 0.00 | 0.00 | 0.00 | 56 | 1015.3 |
| 20260507035617 | 10 | 155 | 6.4 | 12.9 | 0.00 | 0.00 | 0.00 | 55 | 1015.4 |
| 20260507035113 | 10 | 156 | 6.4 | 9.7 | 0.00 | 0.00 | 0.00 | 56 | 1015.5 |
| 20260507034610 | 10 | 148 | 6.4 | 9.7 | 0.00 | 0.00 | 0.00 | 55 | 1015.6 |
| 20260507034107 | 10 | 175 | 3.2 | 11.3 | 0.00 | 0.00 | 0.00 | 54 | 1015.6 |
| 20260507033606 | 10 | 161 | 4.8 | 11.3 | 0.00 | 0.00 | 0.00 | 54 | 1015.3 |
| 20260507033103 | 10 | 126 | 9.7 | 9.7 | 0.00 | 0.00 | 0.00 | 55 | 1015.6 |
| 20260507032600 | 10 | 148 | 6.4 | 8.0 | 0.00 | 0.00 | 0.00 | 54 | 1015.5 |
| 20260507032056 | 10 | 151 | 4.8 | 6.4 | 0.00 | 0.00 | 0.00 | 53 | 1015.5 |
| 20260507031552 | 10 | 148 | 4.8 | 8.0 | 0.00 | 0.00 | 0.00 | 54 | 1015.4 |
| 20260507031049 | 9 | 141 | 6.4 | 8.0 | 0.00 | 0.00 | 0.00 | 55 | 1015.3 |
| 20260507030546 | 8 | 117 | 3.2 | 4.8 | 0.00 | 0.00 | 0.00 | 57 | 1015.3 |
| 20260507030044 | 10 | 90 | 3.2 | 8.0 | 0.00 | 0.00 | 0.00 | 56 | 1015.3 |
| 20260507025541 | 10 | 83 | 1.6 | 4.8 | 0.00 | 0.00 | 0.00 | 55 | 1015.4 |
| 20260507025038 | 9 | 104 | 4.8 | 6.4 | 0.00 | 0.00 | 0.00 | 55 | 1015.4 |
| 20260507024536 | 10 | 107 | 4.8 | 6.4 | 0.00 | 0.00 | 0.00 | 54 | 1015.4 |
| 20260507024032 | 10 | 105 | 4.8 | 4.8 | 0.00 | 0.00 | 0.00 | 53 | 1015.5 |
| 20260507023527 | 10 | 117 | 4.8 | 6.4 | 0.00 | 0.00 | 0.00 | 51 | 1015.3 |
| 20260507023021 | 10 | 157 | 1.6 | 6.4 | 0.00 | 0.00 | 0.00 | 51 | 1015.5 |
| 20260507022517 | 10 | 146 | 3.2 | 6.4 | 0.00 | 0.00 | 0.00 | 51 | 1015.7 |
| 20260507022012 | 10 | 141 | 4.8 | 8.0 | 0.00 | 0.00 | 0.00 | 51 | 1015.6 |
| 20260507021508 | 10 | 146 | 3.2 | 4.8 | 0.00 | 0.00 | 0.00 | 50 | 1015.5 |
| 20260507021005 | 10 | 148 | 4.8 | 4.8 | 0.00 | 0.00 | 0.00 | 52 | 1015.6 |
| 20260507020503 | 11 | 180 | 3.2 | 4.8 | 0.00 | 0.00 | 0.00 | 50 | 1015.5 |
| 20260507015959 | 11 | 184 | 3.2 | 8.0 | 0.00 | 0.00 | 0.00 | 50 | 1015.6 |
| 20260507015458 | 11 | 148 | 1.6 | 4.8 | 0.00 | 0.00 | 0.00 | 50 | 1015.7 |
| 20260507014954 | 11 | 251 | 8.0 | 8.0 | 0.00 | 0.00 | 0.00 | 49 | 1015.7 |
| 20260507014451 | 11 | 157 | 1.6 | 8.0 | 0.00 | 0.00 | 0.00 | 49 | 1016.0 |
| 20260507013947 | 11 | 192 | 3.2 | 8.0 | 0.00 | 0.00 | 0.00 | 50 | 1015.6 |
| 20260507013444 | 11 | 190 | 3.2 | 8.0 | 0.00 | 0.00 | 0.00 | 50 | 1015.9 |
| 20260507012941 | 11 | 215 | 4.8 | 11.3 | 0.00 | 0.00 | 0.00 | 49 | 1015.7 |
| 20260507012437 | 11 | 234 | 11.3 | 19.3 | 0.00 | 0.00 | 0.00 | 48 | 1015.6 |
| 20260507011928 | 12 | 202 | 9.7 | 16.1 | 0.00 | 0.00 | 0.00 | 45 | 1015.9 |
| 20260507011425 | 12 | 233 | 8.0 | 17.7 | 0.00 | 0.00 | 0.00 | 44 | 1015.7 |
| 20260507010920 | 13 | 221 | 6.4 | 16.1 | 0.00 | 0.00 | 0.00 | 44 | 1015.7 |
| 20260507010415 | 13 | 210 | 8.0 | 12.9 | 0.00 | 0.00 | 0.00 | 43 | 1015.7 |
| 20260507005913 | 12 | 197 | 8.0 | 12.9 | 0.00 | 0.00 | 0.00 | 45 | 1015.6 |
| 20260507005410 | 13 | 182 | 6.4 | 16.1 | 0.00 | 0.00 | 0.00 | 43 | 1015.6 |
| 20260507004906 | 13 | 223 | 6.4 | 8.0 | 0.00 | 0.00 | 0.00 | 45 | 1015.6 |
| 20260507004403 | 12 | 201 | 4.8 | 11.3 | 0.00 | 0.00 | 0.00 | 46 | 1015.6 |
| 20260507003900 | 12 | 149 | 4.8 | 6.4 | 0.00 | 0.00 | 0.00 | 47 | 1015.7 |
| 20260507003355 | 11 | 298 | 4.8 | 8.0 | 0.00 | 0.00 | 0.00 | 46 | 1015.6 |
| 20260507002851 | 12 | 297 | 4.8 | 8.0 | 0.00 | 0.00 | 0.00 | 45 | 1015.6 |
| 20260507002347 | 12 | 270 | 3.2 | 4.8 | 0.00 | 0.00 | 0.00 | 49 | 1015.6 |
| 20260507001844 | 11 | 342 | 0.0 | 8.0 | 0.00 | 0.00 | 0.00 | 49 | 1015.9 |
| 20260507001341 | 11 | 323 | 3.2 | 8.0 | 0.00 | 0.00 | 0.00 | 50 | 1015.7 |
| 20260507000838 | 11 | 245 | 8.0 | 8.0 | 0.00 | 0.00 | 0.00 | 48 | 1015.7 |
| 20260507000335 | 12 | 319 | 6.4 | 9.7 | 0.00 | 0.00 | 0.00 | 47 | 1015.7 |
| 20260506235830 | 12 | 75 | 0.0 | 8.0 | 0.00 | 0.00 | 0.00 | 47 | 1015.7 |
| 20260506235327 | 12 | 270 | 3.2 | 11.3 | 0.00 | 0.00 | 0.00 | 46 | 1015.9 |
| 20260506234823 | 13 | 252 | 11.3 | 11.3 | 0.00 | 0.00 | 0.00 | 43 | 1015.6 |
| 20260506234321 | 13 | 251 | 6.4 | 8.0 | 0.00 | 0.00 | 0.00 | 42 | 1015.6 |
| 20260506233818 | 11 | 5 | 0.0 | 6.4 | 0.00 | 0.00 | 0.00 | 45 | 1015.6 |
| 20260506233314 | 12 | 295 | 14.5 | 22.5 | 0.00 | 0.00 | 0.00 | 42 | 1015.6 |
| 20260506232811 | 13 | 350 | 4.8 | 9.7 | 0.00 | 0.00 | 0.00 | 47 | 1015.6 |
| 20260506232306 | 12 | 259 | 6.4 | 14.5 | 0.00 | 0.00 | 0.00 | 46 | 1015.9 |
| 20260506231803 | 12 | 289 | 6.4 | 12.9 | 0.00 | 0.00 | 0.00 | 45 | 1015.7 |
| 20260506231301 | 12 | 246 | 8.0 | 12.9 | 0.00 | 0.00 | 0.00 | 42 | 1015.9 |
| 20260506230758 | 12 | 278 | 12.9 | 12.9 | 0.00 | 0.00 | 0.00 | 45 | 1015.7 |
| 20260506230255 | 12 | 263 | 8.0 | 14.5 | 0.00 | 0.00 | 0.00 | 43 | 1015.5 |
| 20260506225751 | 12 | 259 | 4.8 | 11.3 | 0.00 | 0.00 | 0.00 | 44 | 1015.7 |
| 20260506225248 | 12 | 218 | 24.1 | 24.1 | 0.00 | 0.00 | 0.00 | 42 | 1015.7 |
| 20260506224744 | 12 | 278 | 3.2 | 8.0 | 0.00 | 0.00 | 0.00 | 42 | 1015.6 |
| 20260506224242 | 13 | 208 | 8.0 | 14.5 | 0.00 | 0.00 | 0.00 | 42 | 1015.7 |
| 20260506223732 | 13 | 229 | 4.8 | 11.3 | 0.00 | 0.00 | 0.00 | 41 | 1015.6 |
| 20260506223228 | 12 | 324 | 3.2 | 8.0 | 0.00 | 0.00 | 0.00 | 41 | 1015.7 |
| 20260506222726 | 12 | 38 | 3.2 | 6.4 | 0.00 | 0.00 | 0.00 | 42 | 1015.7 |
| 20260506222221 | 13 | 319 | 6.4 | 9.7 | 0.00 | 0.00 | 0.00 | 44 | 1016.0 |
| 20260506221719 | 12 | 348 | 6.4 | 12.9 | 0.00 | 0.00 | 0.00 | 42 | 1015.7 |
| 20260506221217 | 13 | 0 | 3.2 | 11.3 | 0.00 | 0.00 | 0.00 | 41 | 1016.1 |
| 20260506220714 | 12 | 0 | 8.0 | 12.9 | 0.00 | 0.00 | 0.00 | 40 | 1016.1 |
| 20260506220208 | 13 | 326 | 4.8 | 14.5 | 0.00 | 0.00 | 0.00 | 42 | 1016.2 |
| 20260506215705 | 12 | 0 | 3.2 | 8.0 | 0.00 | 0.00 | 0.00 | 41 | 1016.2 |
| 20260506215201 | 12 | 276 | 9.7 | 12.9 | 0.00 | 0.00 | 0.00 | 40 | 1016.2 |
| 20260506214658 | 12 | 246 | 0.0 | 8.0 | 0.00 | 0.00 | 0.00 | 41 | 1016.5 |
| 20260506214155 | 11 | 216 | 0.0 | 17.7 | 0.00 | 0.00 | 0.00 | 42 | 1016.2 |
| 20260506213654 | 12 | 281 | 4.8 | 19.3 | 0.00 | 0.00 | 0.00 | 42 | 1016.4 |
| 20260506213150 | 11 | 227 | 16.1 | 22.5 | 0.00 | 0.00 | 0.00 | 40 | 1016.4 |
| 20260506212647 | 11 | 262 | 11.3 | 19.3 | 0.00 | 0.00 | 0.00 | 41 | 1016.4 |
| 20260506212142 | 11 | 223 | 6.4 | 16.1 | 0.00 | 0.00 | 0.00 | 42 | 1016.2 |
| 20260506211638 | 11 | 238 | 14.5 | 20.9 | 0.00 | 0.00 | 0.00 | 40 | 1016.2 |
| 20260506211135 | 11 | 163 | 8.0 | 14.5 | 0.00 | 0.00 | 0.00 | 40 | 1016.2 |
| 20260506210632 | 11 | 202 | 4.8 | 12.9 | 0.00 | 0.00 | 0.00 | 40 | 1016.6 |
| 20260506210128 | 11 | 345 | 8.0 | 14.5 | 0.00 | 0.00 | 0.00 | 40 | 1016.5 |
| 20260506205626 | 11 | 312 | 6.4 | 16.1 | 0.00 | 0.00 | 0.00 | 39 | 1016.5 |
| 20260506205120 | 11 | 282 | 6.4 | 16.1 | 0.00 | 0.00 | 0.00 | 41 | 1016.5 |
| 20260506204619 | 11 | 306 | 4.8 | 24.1 | 0.00 | 0.00 | 0.00 | 44 | 1016.5 |
| 20260506204115 | 11 | 348 | 6.4 | 24.1 | 0.00 | 0.00 | 0.00 | 42 | 1016.4 |
| 20260506203614 | 11 | 259 | 8.0 | 19.3 | 0.00 | 0.00 | 0.00 | 41 | 1016.4 |
| 20260506203110 | 11 | 239 | 8.0 | 9.7 | 0.00 | 0.00 | 0.00 | 42 | 1016.5 |
| 20260506202608 | 11 | 282 | 4.8 | 14.5 | 0.00 | 0.00 | 0.00 | 41 | 1016.5 |
| 20260506202104 | 11 | 307 | 4.8 | 17.7 | 0.00 | 0.00 | 0.00 | 43 | 1016.2 |
| 20260506201601 | 11 | 285 | 4.8 | 16.1 | 0.00 | 0.00 | 0.00 | 42 | 1016.4 |
| 20260506201058 | 10 | 243 | 3.2 | 8.0 | 0.00 | 0.00 | 0.00 | 40 | 1016.5 |
| 20260506200554 | 10 | 204 | 9.7 | 24.1 | 0.00 | 0.00 | 0.00 | 39 | 1016.5 |
| 20260506200051 | 11 | 0 | 4.8 | 14.5 | 0.00 | 0.00 | 0.00 | 42 | 1016.4 |
| 20260506195547 | 10 | 289 | 6.4 | 11.3 | 0.00 | 0.00 | 0.00 | 42 | 1016.4 |
| 20260506195044 | 10 | 306 | 16.1 | 20.9 | 0.00 | 0.00 | 0.00 | 41 | 1016.5 |
| 20260506194543 | 10 | 312 | 12.9 | 24.1 | 0.00 | 0.00 | 0.00 | 40 | 1016.5 |
| 20260506194038 | 10 | 270 | 11.3 | 22.5 | 0.00 | 0.00 | 0.00 | 42 | 1016.5 |
| 20260506193536 | 10 | 318 | 4.8 | 17.7 | 0.00 | 0.00 | 0.00 | 42 | 1016.6 |
| 20260506193033 | 10 | 232 | 9.7 | 20.9 | 0.00 | 0.00 | 0.00 | 41 | 1016.5 |
| 20260506192529 | 10 | 278 | 8.0 | 19.3 | 0.00 | 0.00 | 0.00 | 42 | 1016.4 |
| 20260506192025 | 10 | 300 | 9.7 | 17.7 | 0.00 | 0.00 | 0.00 | 43 | 1016.5 |
| 20260506191522 | 10 | 284 | 12.9 | 16.1 | 0.00 | 0.00 | 0.00 | 43 | 1016.5 |
| 20260506191018 | 10 | 285 | 11.3 | 19.3 | 0.00 | 0.00 | 0.00 | 42 | 1016.5 |
| 20260506190515 | 10 | 333 | 4.8 | 22.5 | 0.00 | 0.00 | 0.00 | 42 | 1016.6 |
| 20260506190013 | 8 | 266 | 0.0 | 4.8 | 0.00 | 0.00 | 0.00 | 41 | 1016.7 |
| 20260506185510 | 8 | 276 | 16.1 | 20.9 | 0.00 | 0.00 | 0.00 | 43 | 1016.6 |
| 20260506185006 | 8 | 196 | 3.2 | 9.7 | 0.00 | 0.00 | 0.00 | 41 | 1016.8 |
| 20260506184504 | 8 | 279 | 4.8 | 20.9 | 0.00 | 0.00 | 0.00 | 44 | 1016.7 |
| 20260506184000 | 8 | 348 | 4.8 | 11.3 | 0.00 | 0.00 | 0.00 | 44 | 1016.8 |
| 20260506183455 | 9 | 286 | 8.0 | 20.9 | 0.00 | 0.00 | 0.00 | 45 | 1016.6 |
| 20260506182953 | 9 | 293 | 11.3 | 14.5 | 0.00 | 0.00 | 0.00 | 44 | 1016.7 |
| 20260506182449 | 8 | 187 | 1.6 | 6.4 | 0.00 | 0.00 | 0.00 | 39 | 1016.7 |
| 20260506181946 | 8 | 281 | 4.8 | 17.7 | 0.00 | 0.00 | 0.00 | 41 | 1017.0 |
| 20260506181444 | 8 | 233 | 4.8 | 11.3 | 0.00 | 0.00 | 0.00 | 41 | 1016.7 |
| 20260506180941 | 7 | 232 | 8.0 | 20.9 | 0.00 | 0.00 | 0.00 | 41 | 1016.6 |
| 20260506180438 | 8 | 233 | 4.8 | 12.9 | 0.00 | 0.00 | 0.00 | 43 | 1016.6 |
| 20260506175929 | 8 | 278 | 12.9 | 14.5 | 0.00 | 0.00 | 0.00 | 42 | 1016.6 |
| 20260506175426 | 8 | 344 | 0.0 | 6.4 | 0.00 | 0.00 | 0.00 | 38 | 1016.6 |
| 20260506174923 | 7 | 236 | 9.7 | 12.9 | 0.00 | 0.00 | 0.00 | 39 | 1016.6 |
| 20260506174421 | 7 | 245 | 17.7 | 17.7 | 0.00 | 0.00 | 0.00 | 40 | 1016.7 |
| 20260506173917 | 8 | 238 | 4.8 | 11.3 | 0.00 | 0.00 | 0.00 | 39 | 1016.6 |
| 20260506173414 | 7 | 288 | 3.2 | 16.1 | 0.00 | 0.00 | 0.00 | 38 | 1016.7 |
| 20260506172911 | 7 | 229 | 6.4 | 14.5 | 0.00 | 0.00 | 0.00 | 40 | 1016.7 |
| 20260506172408 | 8 | 279 | 9.7 | 12.9 | 0.00 | 0.00 | 0.00 | 36 | 1016.6 |
| 20260506171905 | 7 | 281 | 4.8 | 4.8 | 0.00 | 0.00 | 0.00 | 40 | 1016.6 |
| 20260506171402 | 6 | 180 | 6.4 | 14.5 | 0.00 | 0.00 | 0.00 | 37 | 1016.6 |
| 20260506170900 | 7 | 195 | 0.0 | 12.9 | 0.00 | 0.00 | 0.00 | 39 | 1016.5 |
| 20260506170355 | 7 | 78 | 0.0 | 8.0 | 0.00 | 0.00 | 0.00 | 35 | 1016.6 |
| 20260506165855 | 7 | 258 | 1.6 | 16.1 | 0.00 | 0.00 | 0.00 | 37 | 1016.6 |
| 20260506165352 | 7 | 233 | 4.8 | 8.0 | 0.00 | 0.00 | 0.00 | 37 | 1016.5 |
| 20260506164848 | 6 | 201 | 9.7 | 14.5 | 0.00 | 0.00 | 0.00 | 36 | 1016.5 |
| 20260506164345 | 6 | 220 | 0.0 | 4.8 | 0.00 | 0.00 | 0.00 | 33 | 1016.4 |
| 20260506163843 | 7 | 244 | 4.8 | 4.8 | 0.00 | 0.00 | 0.00 | 36 | 1016.4 |
| 20260506163337 | 5 | 244 | 4.8 | 9.7 | 0.00 | 0.00 | 0.00 | 36 | 1016.5 |
| 20260506162833 | 6 | 180 | 4.8 | 4.8 | 0.00 | 0.00 | 0.00 | 35 | 1016.6 |
| 20260506162331 | 5 | 270 | 4.8 | 8.0 | 0.00 | 0.00 | 0.00 | 36 | 1016.7 |
| 20260506161828 | 5 | 219 | 4.8 | 8.0 | 0.00 | 0.00 | 0.00 | 37 | 1016.6 |
| 20260506161325 | 5 | 175 | 1.6 | 14.5 | 0.00 | 0.00 | 0.00 | 37 | 1016.7 |
| 20260506160818 | 5 | 132 | 6.4 | 6.4 | 0.00 | 0.00 | 0.00 | 40 | 1016.8 |
| 20260506160314 | 5 | 242 | 6.4 | 8.0 | 0.00 | 0.00 | 0.00 | 36 | 1016.8 |
| 20260506155813 | 5 | 90 | 4.8 | 8.0 | 0.00 | 0.00 | 0.00 | 39 | 1016.7 |
| 20260506155309 | 5 | 150 | 4.8 | 6.4 | 0.00 | 0.00 | 0.00 | 38 | 1016.7 |
| 20260506153421 | 3 | 163 | 6.4 | 14.5 | 0.00 | 0.00 | 0.00 | 46 | 1016.7 |
| 20260506152919 | 3 | 169 | 4.8 | 11.3 | 0.00 | 0.00 | 0.00 | 48 | 1016.7 |
| 20260506152415 | 4 | 202 | 8.0 | 8.0 | 0.00 | 0.00 | 0.00 | 49 | 1016.6 |
| 20260506151914 | 3 | 129 | 3.2 | 6.4 | 0.00 | 0.00 | 0.00 | 48 | 1016.7 |
| 20260506151410 | 3 | 135 | 3.2 | 8.0 | 0.00 | 0.00 | 0.00 | 52 | 1016.8 |
| 20260506150908 | 3 | 142 | 8.0 | 11.3 | 0.00 | 0.00 | 0.00 | 51 | 1016.7 |
| 20260506150404 | 2 | 96 | 1.6 | 4.8 | 0.00 | 0.00 | 0.00 | 50 | 1016.7 |
| 20260506145901 | 2 | 270 | 0.0 | 6.4 | 0.00 | 0.00 | 0.00 | 52 | 1016.5 |
| 20260506145357 | 2 | 213 | 3.2 | 8.0 | 0.00 | 0.00 | 0.00 | 53 | 1016.6 |
| 20260506144855 | 2 | 226 | 6.4 | 6.4 | 0.00 | 0.00 | 0.00 | 53 | 1016.6 |
| 20260506144351 | 2 | 180 | 1.6 | 8.0 | 0.00 | 0.00 | 0.00 | 52 | 1016.5 |
| 20260506143850 | 2 | 270 | 0.0 | 4.8 | 0.00 | 0.00 | 0.00 | 56 | 1016.5 |
| 20260506143346 | 2 | 211 | 3.2 | 4.8 | 0.00 | 0.00 | 0.00 | 58 | 1016.4 |
| 20260506142845 | 1 | 132 | 6.4 | 8.0 | 0.00 | 0.00 | 0.00 | 56 | 1016.2 |
| 20260506142342 | 1 | 142 | 6.4 | 9.7 | 0.00 | 0.00 | 0.00 | 57 | 1016.4 |
| 20260506141840 | 1 | 158 | 3.2 | 6.4 | 0.00 | 0.00 | 0.00 | 57 | 1016.2 |
| 20260506141338 | 1 | 107 | 0.0 | 3.2 | 0.00 | 0.00 | 0.00 | 57 | 1016.1 |
| 20260506140836 | 1 | 192 | 0.0 | 8.0 | 0.00 | 0.00 | 0.00 | 58 | 1016.2 |
| 20260506140332 | 0 | 83 | 1.6 | 3.2 | 0.00 | 0.00 | 0.00 | 59 | 1016.1 |
| 20260506135829 | 0 | 111 | 0.0 | 3.2 | 0.00 | 0.00 | 0.00 | 59 | 1016.1 |
| 20260506135326 | 0 | 90 | 4.8 | 4.8 | 0.00 | 0.00 | 0.00 | 62 | 1016.1 |
| 20260506134822 | 0 | 98 | 3.2 | 8.0 | 0.00 | 0.00 | 0.00 | 61 | 1016.0 |
| 20260506134319 | 0 | 78 | 4.8 | 6.4 | 0.00 | 0.00 | 0.00 | 66 | 1015.9 |
| 20260506133816 | -2 | 90 | 4.8 | 8.0 | 0.00 | 0.00 | 0.00 | 69 | 1015.6 |
| 20260506133313 | -2 | 95 | 3.2 | 6.4 | 0.00 | 0.00 | 0.00 | 71 | 1015.7 |
| 20260506132809 | -2 | 90 | 6.4 | 8.0 | 0.00 | 0.00 | 0.00 | 70 | 1015.6 |
| 20260506132307 | -2 | 83 | 8.0 | 9.7 | 0.00 | 0.00 | 0.00 | 71 | 1015.4 |
| 20260506131805 | -3 | 87 | 4.8 | 9.7 | 0.00 | 0.00 | 0.00 | 73 | 1015.5 |
| 20260506131300 | -3 | 90 | 1.6 | 9.7 | 0.00 | 0.00 | 0.00 | 74 | 1015.4 |
| 20260506130757 | -4 | 74 | 4.8 | 8.0 | 0.00 | 0.00 | 0.00 | 75 | 1015.4 |
| 20260506130254 | -4 | 90 | 1.6 | 6.4 | 0.00 | 0.00 | 0.00 | 75 | 1015.3 |
| 20260506125752 | -4 | 100 | 4.8 | 6.4 | 0.00 | 0.00 | 0.00 | 77 | 1015.1 |
| 20260506125250 | -5 | 90 | 0.0 | 4.8 | 0.00 | 0.00 | 0.00 | 78 | 1015.1 |
| 20260506124748 | -5 | 45 | 3.2 | 3.2 | 0.00 | 0.00 | 0.00 | 78 | 1015.1 |
| 20260506124245 | -5 | 5 | 4.8 | 4.8 | 0.00 | 0.00 | 0.00 | 79 | 1015.0 |
| 20260506123743 | -6 | 53 | 0.0 | 3.2 | 0.00 | 0.00 | 0.00 | 79 | 1015.1 |
| 20260506123241 | -6 | 75 | 1.6 | 6.4 | 0.00 | 0.00 | 0.00 | 78 | 1015.0 |
| 20260506122738 | -5 | 90 | 3.2 | 3.2 | 0.00 | 0.00 | 0.00 | 76 | 1015.0 |
| 20260506122235 | -5 | 39 | 4.8 | 4.8 | 0.00 | 0.00 | 0.00 | 75 | 1014.9 |
| 20260506121733 | -5 | 80 | 3.2 | 6.4 | 0.00 | 0.00 | 0.00 | 76 | 1014.7 |
| 20260506121229 | -5 | 107 | 4.8 | 6.4 | 0.00 | 0.00 | 0.00 | 74 | 1014.5 |
| 20260506120727 | -4 | 100 | 6.4 | 8.0 | 0.00 | 0.00 | 0.00 | 74 | 1014.7 |
| 20260506120225 | -5 | 90 | 4.8 | 8.0 | 0.00 | 0.00 | 0.00 | 74 | 1014.5 |
| 20260506115722 | -5 | 97 | 4.8 | 4.8 | 0.00 | 0.00 | 0.00 | 74 | 1014.8 |
| 20260506115220 | -4 | 132 | 4.8 | 8.0 | 0.00 | 0.00 | 0.00 | 73 | 1014.5 |
| 20260506114718 | -4 | 110 | 6.4 | 8.0 | 0.00 | 0.00 | 0.00 | 73 | 1014.7 |
| 20260506114215 | -4 | 127 | 4.8 | 8.0 | 0.00 | 0.00 | 0.00 | 73 | 1014.4 |
| 20260506113713 | -4 | 125 | 6.4 | 8.0 | 0.00 | 0.00 | 0.00 | 73 | 1014.4 |
| 20260506113211 | -4 | 109 | 8.0 | 9.7 | 0.00 | 0.00 | 0.00 | 75 | 1014.5 |
| 20260506112707 | -4 | 107 | 6.4 | 8.0 | 0.00 | 0.00 | 0.00 | 75 | 1014.8 |
| 20260506112205 | -4 | 107 | 8.0 | 9.7 | 0.00 | 0.00 | 0.00 | 73 | 1014.4 |
| 20260506111702 | -3 | 123 | 6.4 | 11.3 | 0.00 | 0.00 | 0.00 | 71 | 1014.4 |
| 20260506111159 | -3 | 103 | 8.0 | 8.0 | 0.00 | 0.00 | 0.00 | 73 | 1014.5 |
| 20260506110656 | -5 | 100 | 4.8 | 6.4 | 0.00 | 0.00 | 0.00 | 77 | 1014.4 |
| 20260506110154 | -4 | 102 | 6.4 | 11.3 | 0.00 | 0.00 | 0.00 | 73 | 1014.3 |
| 20260506105650 | -3 | 121 | 4.8 | 8.0 | 0.00 | 0.00 | 0.00 | 72 | 1014.4 |
| 20260506105147 | -4 | 117 | 4.8 | 12.9 | 0.00 | 0.00 | 0.00 | 74 | 1014.3 |
| 20260506104646 | -3 | 97 | 3.2 | 11.3 | 0.00 | 0.00 | 0.00 | 70 | 1014.4 |
| 20260506104143 | -3 | 117 | 4.8 | 9.7 | 0.00 | 0.00 | 0.00 | 71 | 1014.3 |
| 20260506103640 | -3 | 108 | 6.4 | 9.7 | 0.00 | 0.00 | 0.00 | 71 | 1014.3 |
| 20260506103137 | -4 | 99 | 8.0 | 11.3 | 0.00 | 0.00 | 0.00 | 74 | 1014.4 |
| 20260506102635 | -3 | 112 | 6.4 | 8.0 | 0.00 | 0.00 | 0.00 | 71 | 1014.4 |
| 20260506102132 | -3 | 107 | 6.4 | 14.5 | 0.00 | 0.00 | 0.00 | 72 | 1014.2 |
| 20260506101629 | -3 | 119 | 4.8 | 8.0 | 0.00 | 0.00 | 0.00 | 73 | 1014.3 |
| 20260506101125 | -3 | 113 | 8.0 | 8.0 | 0.00 | 0.00 | 0.00 | 74 | 1014.2 |
| 20260506100624 | -3 | 97 | 3.2 | 6.4 | 0.00 | 0.00 | 0.00 | 74 | 1014.3 |
| 20260506100121 | -3 | 106 | 4.8 | 6.4 | 0.00 | 0.00 | 0.00 | 75 | 1014.2 |
| 20260506095620 | -4 | 115 | 3.2 | 4.8 | 0.00 | 0.00 | 0.00 | 75 | 1014.3 |
| 20260506095116 | -4 | 115 | 3.2 | 6.4 | 0.00 | 0.00 | 0.00 | 76 | 1014.2 |
| 20260506094614 | -4 | 130 | 4.8 | 9.7 | 0.00 | 0.00 | 0.00 | 76 | 1014.3 |
| 20260506094111 | -4 | 152 | 11.3 | 14.5 | 0.00 | 0.00 | 0.00 | 75 | 1014.3 |
| 20260506093610 | -3 | 154 | 12.9 | 14.5 | 0.00 | 0.00 | 0.00 | 75 | 1014.2 |
| 20260506093107 | -3 | 151 | 8.0 | 12.9 | 0.00 | 0.00 | 0.00 | 74 | 1014.3 |
| 20260506092605 | -3 | 174 | 3.2 | 8.0 | 0.00 | 0.00 | 0.00 | 73 | 1014.2 |
| 20260506092101 | -3 | 175 | 8.0 | 11.3 | 0.00 | 0.00 | 0.00 | 72 | 1014.1 |
| 20260506091600 | -3 | 153 | 9.7 | 11.3 | 0.00 | 0.00 | 0.00 | 72 | 1013.9 |
| 20260506091057 | -2 | 139 | 8.0 | 11.3 | 0.00 | 0.00 | 0.00 | 70 | 1014.1 |